Flight Information

DEPARTURE
CASPER, WY
Elevation:
5344
Runways:
8/26 - 8679x150 - ASPH-F
3/21 - 10165x150 - ASPH-G
ATIS:
126.15
Clearance Delivery:
121.9
Ground:
121.9
Tower:
CASPER TOWER 118.3
DESTINATION
,
Elevation:
TPA:
1000 (est.)


6118.6 NM79° True-13° Var65° HDG

Flight Plan:
(click to file on line)

1. Type
2. Aircraft Identification
3. Aircraft Type / Special Equipment
4. True Airspeed
kts
5. Departure Airport
(ICAO code)
6. Arriving Airport
(ICAO code)
7. Cruising Altitude
ft
8. Alternate Airport
(ICAO code)
9. Route of Flight
10. Remarks


00:00:00 Departure ATIS: Destination ATIS:

Clearance Limit:
Route:
Altitude: Expect in minutes
Frequency:
Transponder: (7500 Hijack / 7600 Lost Comms / 7700 Emergency)


KCPR 261353Z 08008KT 10SM CLR 13/02 A3047 RMK AO2 SLP276 T01280022
Time: 2022-06-26T13:53:00Z
1656253726
Winds: 80 @ 8 kts
Visibility: 10.0 sm
Clouds (AGL): CLR
Temperature: 12.8 C
Dew Point: 2.2 C
Pressure: 30.469488 in Hgbr


Notes:

Data extracted from FAA Digital Chart Supplement. Effective: 0901Z Thursday, 27 JAN 2022 to 0900z Thursday, 24 MAR 2022
Current ATIS data is provided courtisy of PilotEdge.